Location: Fort Wayne
(41.1310°N, 85.1290°W)
Time: 04:23:17
(UTC-04:00)

Tiros 1 despin weight - Visible Passes

Search period start: 01 November 2014 00:00
Search period end: 10 November 2014 23:00
Orbit: 600 x 652 km, 48.2° (Epoch: 31 October)

Date Brightness Start Highest point End Pass type
(mag) Time Alt. Az. Time Alt. Az. Time Alt. Az.
01 Nov ? 05:09:35 19° ESE 05:09:35 19° ESE 05:11:53 10° E visible
01 Nov ? 06:46:50 24° WSW 06:49:41 87° NNW 06:54:23 10° ENE visible
02 Nov ? 04:28:23 34° ESE 04:28:23 34° ESE 04:31:36 10° ENE visible
02 Nov ? 06:05:38 19° W 06:08:53 56° NNW 06:13:30 10° ENE visible
03 Nov ? 04:47:03 57° E 04:47:03 57° E 04:50:53 10° ENE visible
03 Nov ? 06:24:18 13° W 06:28:13 41° NNW 06:32:38 10° ENE visible
04 Nov ? 05:05:37 65° N 05:05:37 65° N 05:10:00 10° ENE visible
04 Nov ? 06:43:18 10° WNW 06:47:37 35° N 06:51:54 10° ENE visible
05 Nov ? 03:46:52 13° ENE 03:46:52 13° ENE 03:47:19 10° ENE visible
05 Nov ? 05:24:05 44° NW 05:24:35 46° NNW 05:29:06 10° ENE visible
06 Nov ? 04:05:16 18° ENE 04:05:16 18° ENE 04:06:28 10° ENE visible
06 Nov ? 05:42:30 30° NW 05:43:56 37° N 05:48:18 10° ENE visible
07 Nov ? 04:23:38 23° NE 04:23:38 23° NE 04:25:33 10° ENE visible
07 Nov ? 06:00:51 21° NW 06:03:21 34° N 06:07:37 10° ENE visible
08 Nov ? 04:41:57 29° NNE 04:41:57 29° NNE 04:44:41 10° ENE visible
08 Nov ? 06:19:11 14° NW 06:22:45 37° N 06:27:05 10° ENE visible
09 Nov ? 05:00:15 33° NNE 05:00:15 33° NNE 05:03:56 10° ENE visible
09 Nov ? 06:37:33 10° WNW 06:42:06 46° NNE 06:46:34 10° E visible
10 Nov ? 05:18:33 34° N 05:19:01 35° N 05:23:19 10° ENE visible
